Tracking 31027 objects as of 19-Jul-2025
HD Live streaming from Space Station
objects crossing your sky now

GLOBALSTAR M031

Track GLOBALSTAR M031 now!
10-day predictions
GLOBALSTAR M031 is classified as:


NORAD ID: 25946
Int'l Code: 1999-058D
Perigee: 1,616.4 km
Apogee: 1,617.5 km
Inclination: 52.0 °
Period: 118.4 minutes
Semi major axis: 7987 km
RCS: 2.5697 m2 (large)
Launch date: October 18, 1999
Source: Globalstar (GLOB)
Launch site: TYURATAM MISSILE AND SPACE COMPLEX (TTMTR)
Your satellite tracking list
FENGYUN 1C DEB
Track 1 satellite(s)




NASA's NSSDC Master Catalog

Two Line Element Set (TLE):
1 25946U 99058D   25199.91297087  .00000010  00000-0  10150-2 0  9996
2 25946  51.9981  12.9209 0000685 210.6316 300.9740 12.16038629168648
Source of the keplerian elements: AFSPC